GPX7EJ ESGG-BKPR

Flight info

Callsign GPX7EJ
Flight time 2h 27m
Altitude 37000
Route TOPLA DCT POKEN DCT PIXOR DCT DESEN DCT VALPI DCT XOMBA DCT BAREB DCT SIVLA DCT OSLUD DCT AKIKA DCT MAVAR DCT XAXAN XAXAN1D
Aircraft A320/M-SDE3FGHIRWY/LB1

Departure

Time 2026-04-25 19:29
Airport Göteborg Landvetter Airport (ESGG)

Arrival

Time 2026-04-25 21:56
Airport Priština Adem Jashari International Airport (BKPR)
Time Latitude Longitude Altitude Speed Heading
2026-04-25 18:47 57.66607 12.29174 516 ft 0 kts 116°
2026-04-25 19:17 57.66608 12.29172 516 ft 1 kts 116°
2026-04-25 19:17 57.66615 12.29146 516 ft 3 kts 118°
2026-04-25 19:17 57.66625 12.29113 516 ft 3 kts 123°
2026-04-25 19:17 57.66636 12.29083 516 ft 3 kts 132°
2026-04-25 19:18 57.66650 12.29058 516 ft 3 kts 155°
2026-04-25 19:18 57.66665 12.29050 516 ft 2 kts 200°
2026-04-25 19:18 57.66668 12.29052 516 ft 1 kts 205°
2026-04-25 19:22 57.66622 12.29011 516 ft 4 kts 207°
2026-04-25 19:23 57.66623 12.28914 516 ft 13 kts 299°
2026-04-25 19:23 57.66641 12.28647 512 ft 9 kts 199°
2026-04-25 19:23 57.66587 12.28603 512 ft 8 kts 206°
2026-04-25 19:24 57.66541 12.28560 512 ft 10 kts 206°
2026-04-25 19:24 57.66431 12.28462 511 ft 19 kts 205°
2026-04-25 19:24 57.66184 12.28235 510 ft 22 kts 205°
2026-04-25 19:25 57.65949 12.28020 508 ft 21 kts 207°
2026-04-25 19:25 57.65807 12.27890 506 ft 24 kts 206°
2026-04-25 19:25 57.65679 12.27776 504 ft 20 kts 205°
2026-04-25 19:26 57.65545 12.27654 514 ft 23 kts 206°
2026-04-25 19:26 57.65393 12.27516 499 ft 26 kts 205°
2026-04-25 19:26 57.65231 12.27368 491 ft 20 kts 206°
2026-04-25 19:26 57.65132 12.27277 486 ft 10 kts 207°
2026-04-25 19:27 57.65063 12.27215 487 ft 13 kts 205°
2026-04-25 19:27 57.65041 12.27196 486 ft 8 kts 206°
2026-04-25 19:27 57.65036 12.27051 492 ft 12 kts 328°
2026-04-25 19:27 57.65118 12.26986 489 ft 13 kts 341°
2026-04-25 19:28 57.65176 12.26973 491 ft 7 kts 23°
2026-04-25 19:28 57.65306 12.27089 495 ft 52 kts 25°
2026-04-25 19:28 57.65839 12.27572 505 ft 115 kts 26°
2026-04-25 19:28 57.66706 12.28355 540 ft 159 kts 25°
2026-04-25 19:29 57.67681 12.29290 1185 ft 156 kts 22°
2026-04-25 19:29 57.68655 12.30180 2027 ft 153 kts 21°
2026-04-25 19:29 57.69615 12.31120 2619 ft 168 kts 31°
2026-04-25 19:29 57.70240 12.33228 2875 ft 211 kts 78°
2026-04-25 19:30 57.70172 12.35104 3264 ft 223 kts 93°
2026-04-25 19:30 57.69596 12.38871 4265 ft 230 kts 101°
2026-04-25 19:30 57.69043 12.41724 4867 ft 239 kts 109°
2026-04-25 19:30 57.67946 12.44124 5006 ft 249 kts 144°
2026-04-25 19:31 57.66253 12.45305 5041 ft 282 kts 171°
2026-04-25 19:31 57.64242 12.45800 5033 ft 293 kts 172°
2026-04-25 19:31 57.62213 12.46273 5034 ft 294 kts 172°
2026-04-25 19:31 57.60190 12.46612 5036 ft 295 kts 180°
2026-04-25 19:32 57.58134 12.46598 5050 ft 297 kts 180°
2026-04-25 19:32 57.56016 12.46595 5824 ft 298 kts 180°
2026-04-25 19:32 57.53944 12.46596 6787 ft 297 kts 181°
2026-04-25 19:32 57.53265 12.46533 7051 ft 298 kts 186°
2026-04-25 19:33 57.49834 12.45498 8453 ft 302 kts 192°
2026-04-25 19:33 57.47728 12.45092 9255 ft 307 kts 177°
2026-04-25 19:33 57.45644 12.46032 10025 ft 311 kts 156°
2026-04-25 19:33 57.43624 12.47714 10406 ft 329 kts 155°
2026-04-25 19:34 57.41482 12.49540 10603 ft 352 kts 155°
2026-04-25 19:34 57.39207 12.51495 10995 ft 366 kts 155°
2026-04-25 19:34 57.36872 12.53497 11615 ft 372 kts 155°
2026-04-25 19:34 57.34501 12.55520 12278 ft 377 kts 155°
2026-04-25 19:35 57.32096 12.57561 12928 ft 383 kts 155°
2026-04-25 19:35 57.29649 12.59626 13608 ft 388 kts 156°
2026-04-25 19:35 57.27211 12.61676 14192 ft 392 kts 156°
2026-04-25 19:35 57.24703 12.63778 14722 ft 398 kts 156°
2026-04-25 19:36 57.22154 12.65910 15233 ft 404 kts 156°
2026-04-25 19:36 57.19561 12.68080 15737 ft 411 kts 156°
2026-04-25 19:36 57.17114 12.70127 16199 ft 416 kts 155°
2026-04-25 19:36 57.14302 12.72480 16727 ft 423 kts 155°
2026-04-25 19:37 57.11603 12.74737 17216 ft 429 kts 155°
2026-04-25 19:37 57.09782 12.76257 17542 ft 433 kts 155°
2026-04-25 19:37 57.07019 12.78563 18034 ft 439 kts 155°
2026-04-25 19:37 57.04211 12.80906 18489 ft 445 kts 155°
2026-04-25 19:38 57.01366 12.83273 18897 ft 451 kts 155°
2026-04-25 19:38 56.98481 12.85662 19268 ft 457 kts 155°
2026-04-25 19:38 56.95543 12.88092 19616 ft 465 kts 155°
2026-04-25 19:38 56.92613 12.90510 20013 ft 471 kts 155°
2026-04-25 19:39 56.89594 12.93002 20445 ft 476 kts 154°
2026-04-25 19:39 56.86551 12.95511 20862 ft 482 kts 154°
2026-04-25 19:39 56.83475 12.98038 21382 ft 486 kts 155°
2026-04-25 19:39 56.80163 13.00753 22152 ft 482 kts 155°
2026-04-25 19:40 56.77329 13.03068 22583 ft 485 kts 155°
2026-04-25 19:40 56.74259 13.05570 22970 ft 490 kts 155°
2026-04-25 19:40 56.71136 13.08113 23348 ft 495 kts 155°
2026-04-25 19:40 56.67977 13.10683 23620 ft 500 kts 155°
2026-04-25 19:41 56.64761 13.13295 23850 ft 507 kts 155°
2026-04-25 19:41 56.61520 13.15920 24147 ft 511 kts 155°
2026-04-25 19:41 56.58248 13.18567 24460 ft 514 kts 155°
2026-04-25 19:41 56.56068 13.20328 24668 ft 516 kts 155°
2026-04-25 19:42 56.51698 13.23852 25073 ft 520 kts 155°
2026-04-25 19:42 56.48365 13.26534 25372 ft 524 kts 155°
2026-04-25 19:42 56.45027 13.29215 25666 ft 527 kts 155°
2026-04-25 19:42 56.41660 13.31916 25955 ft 530 kts 155°
2026-04-25 19:43 56.38306 13.34597 26258 ft 533 kts 156°
2026-04-25 19:43 56.34893 13.37316 26675 ft 532 kts 156°
2026-04-25 19:43 56.31495 13.40024 27014 ft 533 kts 156°
2026-04-25 19:43 56.28127 13.42704 27295 ft 536 kts 156°
2026-04-25 19:44 56.24702 13.45416 27578 ft 538 kts 156°
2026-04-25 19:44 56.21252 13.48141 27842 ft 541 kts 156°
2026-04-25 19:44 56.17791 13.50874 28112 ft 544 kts 156°
2026-04-25 19:44 56.14315 13.53615 28356 ft 546 kts 156°
2026-04-25 19:45 56.10820 13.56372 28612 ft 549 kts 156°
2026-04-25 19:45 56.07355 13.59102 28737 ft 552 kts 156°
2026-04-25 19:45 56.03807 13.61892 28901 ft 557 kts 157°
2026-04-25 19:45 56.00245 13.64681 29105 ft 560 kts 157°
2026-04-25 19:46 55.96658 13.67476 29325 ft 562 kts 157°
2026-04-25 19:46 55.92955 13.70351 29664 ft 563 kts 157°
2026-04-25 19:46 55.89516 13.73022 30045 ft 559 kts 157°
2026-04-25 19:46 55.85946 13.75801 30351 ft 557 kts 157°
2026-04-25 19:47 55.82405 13.78555 30664 ft 555 kts 158°
2026-04-25 19:47 55.78856 13.81304 30895 ft 554 kts 158°
2026-04-25 19:47 55.75310 13.84036 31081 ft 555 kts 158°
2026-04-25 19:47 55.71768 13.86757 31330 ft 554 kts 158°
2026-04-25 19:48 55.68227 13.89475 31591 ft 554 kts 158°
2026-04-25 19:48 55.64693 13.92185 31862 ft 553 kts 158°
2026-04-25 19:48 55.61160 13.94889 32137 ft 552 kts 158°
2026-04-25 19:48 55.57648 13.97579 32408 ft 550 kts 158°
2026-04-25 19:49 55.54155 14.00253 32700 ft 549 kts 158°
2026-04-25 19:49 55.51828 14.02029 32876 ft 549 kts 158°
2026-04-25 19:49 55.47136 14.05594 33267 ft 546 kts 159°
2026-04-25 19:49 55.43654 14.08232 33609 ft 543 kts 159°
2026-04-25 19:50 55.36754 14.13448 34130 ft 540 kts 159°
2026-04-25 19:50 55.33300 14.16050 34366 ft 539 kts 159°
2026-04-25 19:50 55.29844 14.18653 34612 ft 537 kts 159°
2026-04-25 19:51 55.26405 14.21238 34846 ft 536 kts 159°
2026-04-25 19:51 55.22969 14.23817 35062 ft 535 kts 159°
2026-04-25 19:51 55.19555 14.26372 35273 ft 534 kts 159°
2026-04-25 19:51 55.16159 14.28907 35480 ft 533 kts 160°
2026-04-25 19:52 55.12749 14.31444 35682 ft 531 kts 160°
2026-04-25 19:52 55.09377 14.33947 35873 ft 530 kts 160°
2026-04-25 19:52 55.05974 14.36468 36073 ft 529 kts 160°
2026-04-25 19:52 55.02590 14.38977 36333 ft 526 kts 160°
2026-04-25 19:53 54.99222 14.41476 36575 ft 524 kts 160°
2026-04-25 19:53 54.95880 14.43951 36767 ft 522 kts 160°
2026-04-25 19:53 54.92513 14.46433 36859 ft 522 kts 160°
2026-04-25 19:54 54.85842 14.51334 36858 ft 523 kts 160°
2026-04-25 19:54 54.79114 14.56266 36870 ft 523 kts 160°
2026-04-25 19:55 54.72481 14.61105 36870 ft 523 kts 160°
2026-04-25 19:55 54.65742 14.65999 36869 ft 523 kts 160°
2026-04-25 19:56 54.59070 14.70828 36895 ft 523 kts 161°
2026-04-25 19:56 54.52328 14.75703 36892 ft 524 kts 161°
2026-04-25 19:57 54.45625 14.80533 36899 ft 523 kts 161°
2026-04-25 19:57 54.38878 14.85365 36896 ft 523 kts 161°
2026-04-25 19:58 54.32196 14.90141 36839 ft 523 kts 161°
2026-04-25 19:58 54.25447 14.94951 36850 ft 524 kts 161°
2026-04-25 19:59 54.18732 14.99710 36900 ft 525 kts 162°
2026-04-25 19:59 54.11973 15.04484 36902 ft 524 kts 162°
2026-04-25 20:00 54.05222 15.09241 36852 ft 523 kts 162°
2026-04-25 20:00 53.98508 15.13956 36881 ft 524 kts 162°
2026-04-25 20:01 53.88385 15.21038 36901 ft 524 kts 162°
2026-04-25 20:01 53.81647 15.25716 36897 ft 524 kts 162°
2026-04-25 20:02 53.74938 15.30366 36884 ft 523 kts 163°
2026-04-25 20:02 53.68167 15.35047 36920 ft 526 kts 163°
2026-04-25 20:03 53.61550 15.39610 36925 ft 525 kts 163°
2026-04-25 20:03 53.54789 15.44240 36923 ft 525 kts 163°
2026-04-25 20:04 53.48080 15.48814 36863 ft 524 kts 163°
2026-04-25 20:04 53.41265 15.53470 36920 ft 524 kts 163°
2026-04-25 20:05 53.34548 15.58051 36951 ft 523 kts 163°
2026-04-25 20:05 53.27788 15.62632 36953 ft 523 kts 163°
2026-04-25 20:06 53.21782 15.66674 36944 ft 522 kts 163°
2026-04-25 20:06 53.15086 15.71174 36913 ft 519 kts 164°
2026-04-25 20:07 53.08365 15.75675 36935 ft 518 kts 164°
2026-04-25 20:07 53.01711 15.80122 36937 ft 517 kts 164°
2026-04-25 20:08 52.95024 15.84573 36941 ft 517 kts 164°
2026-04-25 20:08 52.88375 15.88992 36926 ft 516 kts 164°
2026-04-25 20:09 52.81714 15.93405 36943 ft 514 kts 165°
2026-04-25 20:09 52.75090 15.97760 36953 ft 513 kts 165°
2026-04-25 20:10 52.68425 16.02127 36949 ft 513 kts 165°
2026-04-25 20:10 52.61837 16.06448 36907 ft 510 kts 164°
2026-04-25 20:11 52.55230 16.10773 36920 ft 509 kts 165°
2026-04-25 20:11 52.48629 16.15068 36956 ft 509 kts 165°
2026-04-25 20:12 52.42077 16.19320 36952 ft 509 kts 165°
2026-04-25 20:12 52.37666 16.22174 36946 ft 508 kts 165°
2026-04-25 20:13 52.28895 16.27823 36940 ft 508 kts 165°
2026-04-25 20:13 52.22339 16.32038 36931 ft 508 kts 165°
2026-04-25 20:14 52.15752 16.36252 36922 ft 508 kts 165°
2026-04-25 20:14 52.10256 16.39749 36858 ft 508 kts 165°
2026-04-25 20:15 52.03711 16.43911 36946 ft 507 kts 165°
2026-04-25 20:15 51.97117 16.48109 36940 ft 506 kts 165°
2026-04-25 20:16 51.90588 16.52251 36936 ft 505 kts 165°
2026-04-25 20:16 51.84038 16.56373 36930 ft 504 kts 165°
2026-04-25 20:17 51.77511 16.60468 36892 ft 502 kts 165°
2026-04-25 20:17 51.71035 16.64525 36917 ft 501 kts 165°
2026-04-25 20:18 51.64502 16.68609 36941 ft 501 kts 165°
2026-04-25 20:18 51.58035 16.72646 36935 ft 500 kts 165°
2026-04-25 20:19 51.51530 16.76685 36894 ft 500 kts 165°
2026-04-25 20:19 51.45070 16.80680 36908 ft 500 kts 165°
2026-04-25 20:20 51.38583 16.84687 36914 ft 500 kts 165°
2026-04-25 20:20 51.32808 16.88241 36918 ft 499 kts 165°
2026-04-25 20:21 51.26334 16.92206 36935 ft 499 kts 165°
2026-04-25 20:21 51.19811 16.96187 36933 ft 500 kts 164°
2026-04-25 20:22 51.14400 16.99489 36932 ft 500 kts 164°
2026-04-25 20:22 51.06841 17.04096 36928 ft 500 kts 164°
2026-04-25 20:23 51.00371 17.08018 36891 ft 498 kts 164°
2026-04-25 20:23 50.93875 17.11935 36932 ft 497 kts 164°
2026-04-25 20:24 50.87413 17.15826 36943 ft 496 kts 164°
2026-04-25 20:24 50.80977 17.19700 36957 ft 494 kts 164°
2026-04-25 20:25 50.74580 17.23539 36910 ft 493 kts 164°
2026-04-25 20:25 50.68153 17.27377 36947 ft 491 kts 164°
2026-04-25 20:26 50.61805 17.31163 36949 ft 490 kts 164°
2026-04-25 20:26 50.55403 17.34964 36948 ft 489 kts 164°
2026-04-25 20:27 50.49056 17.38713 36908 ft 488 kts 163°
2026-04-25 20:27 50.42713 17.42457 36939 ft 488 kts 164°
2026-04-25 20:28 50.36345 17.46205 36939 ft 488 kts 164°
2026-04-25 20:28 50.30030 17.49913 36937 ft 487 kts 164°
2026-04-25 20:29 50.23570 17.52924 36903 ft 481 kts 172°
2026-04-25 20:29 50.17025 17.55238 36926 ft 481 kts 172°
2026-04-25 20:30 50.10499 17.57558 36926 ft 482 kts 172°
2026-04-25 20:30 50.03990 17.59874 36939 ft 482 kts 172°
2026-04-25 20:31 49.97426 17.62193 36903 ft 481 kts 172°
2026-04-25 20:31 49.90914 17.64473 36929 ft 480 kts 172°
2026-04-25 20:32 49.84376 17.66774 36943 ft 480 kts 172°
2026-04-25 20:32 49.77906 17.69047 36948 ft 479 kts 173°
2026-04-25 20:33 49.71378 17.71326 36948 ft 479 kts 172°
2026-04-25 20:33 49.65953 17.73214 36950 ft 479 kts 173°
2026-04-25 20:34 49.58369 17.75846 36961 ft 479 kts 173°
2026-04-25 20:34 49.51885 17.78092 36954 ft 478 kts 172°
2026-04-25 20:35 49.45417 17.80332 36935 ft 478 kts 173°
2026-04-25 20:35 49.38914 17.82563 36957 ft 477 kts 173°
2026-04-25 20:36 49.32629 17.84715 36960 ft 477 kts 173°
2026-04-25 20:36 49.26171 17.86943 36965 ft 476 kts 172°
2026-04-25 20:37 49.19696 17.89166 36960 ft 475 kts 172°
2026-04-25 20:37 49.13270 17.91353 36967 ft 474 kts 172°
2026-04-25 20:38 49.06843 17.93532 36982 ft 474 kts 173°
2026-04-25 20:38 49.00406 17.95218 36947 ft 465 kts 182°
2026-04-25 20:39 48.93937 17.95778 36961 ft 465 kts 182°
2026-04-25 20:39 48.88548 17.96260 36964 ft 465 kts 182°
2026-04-25 20:40 48.81011 17.96942 36968 ft 465 kts 182°
2026-04-25 20:40 48.74600 17.97521 36954 ft 465 kts 182°
2026-04-25 20:41 48.68121 17.98108 36958 ft 464 kts 182°
2026-04-25 20:41 48.62225 17.98636 36965 ft 464 kts 182°
2026-04-25 20:42 48.56190 17.99160 36971 ft 464 kts 182°
2026-04-25 20:42 48.49768 17.99727 36951 ft 464 kts 182°
2026-04-25 20:43 48.43314 18.00303 36968 ft 463 kts 182°
2026-04-25 20:43 48.36885 18.00875 36968 ft 462 kts 182°
2026-04-25 20:44 48.30496 18.01429 36946 ft 462 kts 182°
2026-04-25 20:44 48.24056 18.01991 36959 ft 461 kts 182°
2026-04-25 20:45 48.17672 18.02561 36962 ft 461 kts 182°
2026-04-25 20:45 48.11259 18.03118 36963 ft 461 kts 182°
2026-04-25 20:46 48.04863 18.03665 36945 ft 460 kts 182°
2026-04-25 20:46 47.98465 18.04214 36953 ft 460 kts 182°
2026-04-25 20:47 47.92056 18.04772 36958 ft 460 kts 182°
2026-04-25 20:47 47.85650 18.05326 36945 ft 460 kts 182°
2026-04-25 20:48 47.79302 18.05881 36962 ft 458 kts 182°
2026-04-25 20:48 47.72929 18.06526 36985 ft 459 kts 180°
2026-04-25 20:49 47.66561 18.07656 36971 ft 460 kts 177°
2026-04-25 20:49 47.60222 18.08961 36982 ft 459 kts 178°
2026-04-25 20:50 47.53930 18.10167 36994 ft 457 kts 178°
2026-04-25 20:50 47.47602 18.11287 36996 ft 456 kts 179°
2026-04-25 20:51 47.41286 18.12390 36995 ft 456 kts 179°
2026-04-25 20:51 47.35014 18.13500 37006 ft 456 kts 179°
2026-04-25 20:52 47.30804 18.14252 37005 ft 456 kts 179°
2026-04-25 20:52 47.22400 18.15761 36996 ft 455 kts 179°
2026-04-25 20:53 47.16145 18.16876 36976 ft 455 kts 179°
2026-04-25 20:53 47.09847 18.17992 36985 ft 454 kts 179°
2026-04-25 20:54 47.03599 18.19096 36988 ft 454 kts 179°
2026-04-25 20:54 46.97312 18.20205 36964 ft 453 kts 179°
2026-04-25 20:55 46.92082 18.21124 36976 ft 453 kts 179°
2026-04-25 20:55 46.86295 18.22142 36983 ft 453 kts 179°
2026-04-25 20:56 46.80673 18.23135 36980 ft 453 kts 179°
2026-04-25 20:56 46.74470 18.24216 36956 ft 454 kts 179°
2026-04-25 20:57 46.68170 18.25302 36960 ft 454 kts 179°
2026-04-25 20:57 46.61908 18.26400 36968 ft 454 kts 179°
2026-04-25 20:58 46.55707 18.27484 36974 ft 455 kts 179°
2026-04-25 20:58 46.49463 18.28561 36957 ft 455 kts 179°
2026-04-25 20:59 46.43164 18.29653 36963 ft 455 kts 179°
2026-04-25 20:59 46.36859 18.30733 36971 ft 455 kts 179°
2026-04-25 21:00 46.31658 18.31623 36960 ft 455 kts 179°
2026-04-25 21:01 46.21358 18.33402 36985 ft 455 kts 179°
2026-04-25 21:01 46.15070 18.34478 36994 ft 455 kts 179°
2026-04-25 21:02 46.08783 18.35553 36980 ft 455 kts 179°
2026-04-25 21:02 46.03073 18.36530 36994 ft 454 kts 179°
2026-04-25 21:03 45.97757 18.37427 37000 ft 454 kts 178°
2026-04-25 21:03 45.92267 18.38475 37006 ft 454 kts 179°
2026-04-25 21:04 45.86057 18.39477 36989 ft 454 kts 179°
2026-04-25 21:04 45.79759 18.40462 36986 ft 453 kts 179°
2026-04-25 21:05 45.73523 18.41252 36989 ft 448 kts 187°
2026-04-25 21:05 45.67303 18.40970 36963 ft 446 kts 187°
2026-04-25 21:06 45.61080 18.40668 36971 ft 446 kts 188°
2026-04-25 21:06 45.54889 18.40364 36979 ft 446 kts 188°
2026-04-25 21:07 45.48712 18.40055 36985 ft 446 kts 188°
2026-04-25 21:07 45.42507 18.39747 36973 ft 446 kts 187°
2026-04-25 21:08 45.36298 18.39442 36980 ft 446 kts 187°
2026-04-25 21:08 45.30079 18.39133 36988 ft 446 kts 187°
2026-04-25 21:09 45.20803 18.38687 36992 ft 446 kts 187°
2026-04-25 21:09 45.14594 18.38386 36987 ft 446 kts 187°
2026-04-25 21:10 45.08407 18.38617 36979 ft 454 kts 175°
2026-04-25 21:10 45.02142 18.40218 36972 ft 455 kts 174°
2026-04-25 21:11 44.95901 18.41819 36983 ft 455 kts 175°
2026-04-25 21:11 44.89657 18.43408 36993 ft 455 kts 175°
2026-04-25 21:12 44.83460 18.44992 36987 ft 455 kts 174°
2026-04-25 21:12 44.78262 18.46315 36999 ft 455 kts 175°
2026-04-25 21:13 44.70971 18.48151 37011 ft 455 kts 174°
2026-04-25 21:13 44.64718 18.49738 36997 ft 455 kts 174°
2026-04-25 21:14 44.58509 18.51316 37009 ft 455 kts 174°
2026-04-25 21:14 44.52280 18.52886 37020 ft 456 kts 174°
2026-04-25 21:15 44.46031 18.54450 37025 ft 456 kts 174°
2026-04-25 21:15 44.39778 18.56012 37020 ft 456 kts 174°
2026-04-25 21:16 44.33520 18.57579 37029 ft 456 kts 174°
2026-04-25 21:16 44.27311 18.59134 37040 ft 456 kts 174°
2026-04-25 21:17 44.21059 18.60697 37037 ft 455 kts 174°
2026-04-25 21:17 44.14805 18.62252 37049 ft 455 kts 174°
2026-04-25 21:18 44.08595 18.63784 37054 ft 455 kts 174°
2026-04-25 21:18 44.02352 18.65320 37048 ft 455 kts 173°
2026-04-25 21:19 43.96097 18.66872 37060 ft 455 kts 174°
2026-04-25 21:19 43.89896 18.68398 37073 ft 455 kts 174°
2026-04-25 21:20 43.84699 18.69683 37058 ft 455 kts 173°
2026-04-25 21:20 43.77386 18.71484 37054 ft 456 kts 173°
2026-04-25 21:21 43.71171 18.72995 37070 ft 456 kts 173°
2026-04-25 21:21 43.64903 18.74524 37073 ft 456 kts 173°
2026-04-25 21:22 43.58668 18.76055 37063 ft 456 kts 173°
2026-04-25 21:22 43.52405 18.77581 37064 ft 456 kts 173°
2026-04-25 21:23 43.46350 18.80152 37073 ft 462 kts 155°
2026-04-25 21:23 43.40844 18.84786 37066 ft 464 kts 149°
2026-04-25 21:24 43.35418 18.89561 37066 ft 464 kts 149°
2026-04-25 21:24 43.29959 18.94341 37071 ft 464 kts 149°
2026-04-25 21:25 43.24499 18.99103 37074 ft 464 kts 149°
2026-04-25 21:25 43.19069 19.03836 37081 ft 465 kts 149°
2026-04-25 21:26 43.13604 19.08604 37086 ft 464 kts 149°
2026-04-25 21:26 43.08143 19.13363 37088 ft 465 kts 149°
2026-04-25 21:27 43.02705 19.18081 37088 ft 465 kts 149°
2026-04-25 21:27 42.97221 19.22830 37079 ft 465 kts 149°
2026-04-25 21:28 42.91771 19.27529 37083 ft 465 kts 149°
2026-04-25 21:28 42.86283 19.32249 37076 ft 465 kts 149°
2026-04-25 21:29 42.80843 19.36928 37078 ft 465 kts 149°
2026-04-25 21:29 42.75363 19.41635 37072 ft 465 kts 149°
2026-04-25 21:30 42.69879 19.46338 37069 ft 464 kts 149°
2026-04-25 21:30 42.65332 19.50227 37068 ft 464 kts 149°
2026-04-25 21:31 42.58961 19.55668 37059 ft 464 kts 149°
2026-04-25 21:31 42.53526 19.60332 37055 ft 465 kts 145°
2026-04-25 21:32 42.48445 19.65781 37051 ft 465 kts 141°
2026-04-25 21:32 42.43423 19.71262 37063 ft 465 kts 141°
2026-04-25 21:33 42.38380 19.76741 37056 ft 464 kts 141°
2026-04-25 21:33 42.33349 19.82184 37062 ft 464 kts 141°
2026-04-25 21:34 42.28294 19.87644 37061 ft 464 kts 141°
2026-04-25 21:34 42.24103 19.92156 37060 ft 464 kts 141°
2026-04-25 21:35 42.19050 19.97603 37067 ft 463 kts 141°
2026-04-25 21:35 42.14024 20.03003 36677 ft 466 kts 141°
2026-04-25 21:36 42.11459 20.05749 35726 ft 470 kts 141°
2026-04-25 21:36 42.08892 20.08499 34838 ft 473 kts 141°
2026-04-25 21:36 42.06304 20.11274 33893 ft 477 kts 141°
2026-04-25 21:36 42.03699 20.14066 32803 ft 481 kts 141°
2026-04-25 21:37 42.01070 20.16879 32166 ft 474 kts 141°
2026-04-25 21:37 41.99362 20.18701 31741 ft 471 kts 141°
2026-04-25 21:37 41.95968 20.22318 30893 ft 465 kts 141°
2026-04-25 21:37 41.93435 20.25013 30257 ft 461 kts 141°
2026-04-25 21:38 41.90925 20.27679 29567 ft 457 kts 141°
2026-04-25 21:38 41.88476 20.30277 28980 ft 451 kts 141°
2026-04-25 21:38 41.86026 20.32876 28355 ft 446 kts 141°
2026-04-25 21:38 41.83597 20.35453 27763 ft 441 kts 141°
2026-04-25 21:39 41.81193 20.38004 27170 ft 437 kts 141°
2026-04-25 21:39 41.78816 20.40517 26589 ft 434 kts 141°
2026-04-25 21:39 41.76479 20.42983 26028 ft 430 kts 141°
2026-04-25 21:39 41.74139 20.45457 25479 ft 427 kts 140°
2026-04-25 21:40 41.72090 20.48284 24940 ft 421 kts 123°
2026-04-25 21:40 41.70851 20.51776 24424 ft 413 kts 103°
2026-04-25 21:40 41.70541 20.55552 23929 ft 406 kts 84°
2026-04-25 21:40 41.71097 20.59060 23431 ft 399 kts 66°
2026-04-25 21:41 41.72404 20.62146 22954 ft 391 kts 51°
2026-04-25 21:41 41.73883 20.64644 22558 ft 387 kts 50°
2026-04-25 21:41 41.75190 20.66840 22199 ft 384 kts 50°
2026-04-25 21:41 41.76787 20.69530 21753 ft 380 kts 50°
2026-04-25 21:42 41.78157 20.71843 21362 ft 378 kts 50°
2026-04-25 21:42 41.79719 20.74484 20915 ft 375 kts 50°
2026-04-25 21:42 41.81092 20.76813 20511 ft 373 kts 50°
2026-04-25 21:42 41.82364 20.78974 20138 ft 371 kts 50°
2026-04-25 21:43 41.83925 20.81627 19663 ft 369 kts 50°
2026-04-25 21:43 41.85425 20.84184 19208 ft 368 kts 50°
2026-04-25 21:43 41.86919 20.86734 18758 ft 367 kts 51°
2026-04-25 21:43 41.88495 20.89425 18257 ft 366 kts 51°
2026-04-25 21:44 41.90068 20.92115 17745 ft 364 kts 51°
2026-04-25 21:44 41.91618 20.94761 17268 ft 361 kts 51°
2026-04-25 21:44 41.94613 20.99883 16353 ft 357 kts 51°
2026-04-25 21:45 41.96151 21.02519 15893 ft 355 kts 51°
2026-04-25 21:45 41.97149 21.04229 15590 ft 354 kts 51°
2026-04-25 21:45 41.99191 21.07733 14970 ft 352 kts 51°
2026-04-25 21:45 42.00703 21.10324 14512 ft 351 kts 51°
2026-04-25 21:46 42.02193 21.12882 14057 ft 350 kts 51°
2026-04-25 21:46 42.03693 21.15457 13561 ft 350 kts 50°
2026-04-25 21:46 42.05193 21.18031 13073 ft 348 kts 50°
2026-04-25 21:46 42.06680 21.20588 12610 ft 345 kts 50°
2026-04-25 21:47 42.08154 21.23128 12142 ft 343 kts 50°
2026-04-25 21:47 42.09617 21.25658 11717 ft 339 kts 50°
2026-04-25 21:47 42.11046 21.28121 11584 ft 326 kts 49°
2026-04-25 21:47 42.12707 21.30077 11462 ft 310 kts 27°
2026-04-25 21:48 42.14681 21.31035 11324 ft 296 kts
2026-04-25 21:48 42.16684 21.31006 11026 ft 290 kts 347°
2026-04-25 21:48 42.18582 21.30155 10508 ft 286 kts 338°
2026-04-25 21:48 42.20432 21.29179 9863 ft 284 kts 338°
2026-04-25 21:49 42.22247 21.28219 9152 ft 282 kts 338°
2026-04-25 21:49 42.24081 21.27251 8672 ft 280 kts 338°
2026-04-25 21:49 42.25865 21.26312 8541 ft 269 kts 338°
2026-04-25 21:49 42.27546 21.25332 8388 ft 258 kts 329°
2026-04-25 21:50 42.28960 21.23917 8065 ft 255 kts 317°
2026-04-25 21:50 42.30268 21.22292 7668 ft 255 kts 317°
2026-04-25 21:50 42.31577 21.20679 7250 ft 255 kts 317°
2026-04-25 21:50 42.32445 21.19614 7066 ft 252 kts 317°
2026-04-25 21:51 42.34179 21.17487 6581 ft 251 kts 318°
2026-04-25 21:51 42.35495 21.15873 5912 ft 261 kts 317°
2026-04-25 21:51 42.36859 21.14200 5320 ft 267 kts 317°
2026-04-25 21:51 42.38227 21.12517 4827 ft 269 kts 317°
2026-04-25 21:52 42.39581 21.10852 4562 ft 251 kts 317°
2026-04-25 21:52 42.40818 21.09329 4509 ft 232 kts 317°
2026-04-25 21:52 42.41994 21.07881 4454 ft 227 kts 317°
2026-04-25 21:52 42.43162 21.06443 4359 ft 226 kts 317°
2026-04-25 21:53 42.44402 21.05210 4268 ft 219 kts 336°
2026-04-25 21:53 42.45861 21.04716 4052 ft 214 kts 354°
2026-04-25 21:53 42.47342 21.04576 3782 ft 211 kts 356°
2026-04-25 21:53 42.48771 21.04448 3436 ft 199 kts 357°
2026-04-25 21:54 42.50117 21.04315 3134 ft 189 kts 356°
2026-04-25 21:54 42.51368 21.04189 2848 ft 176 kts 356°
2026-04-25 21:54 42.52560 21.04051 2558 ft 167 kts 355°
2026-04-25 21:54 42.53681 21.03945 2329 ft 156 kts 355°
2026-04-25 21:55 42.54748 21.03838 2098 ft 151 kts 354°
2026-04-25 21:55 42.55793 21.03737 1894 ft 150 kts 355°
2026-04-25 21:55 42.56819 21.03632 1780 ft 140 kts 355°
2026-04-25 21:55 42.57653 21.03553 1775 ft 95 kts 355°
2026-04-25 21:56 42.58140 21.03497 1775 ft 46 kts 355°
2026-04-25 21:56 42.58265 21.03454 1776 ft 13 kts 301°